contact:dominique.lefevre@mio.osupytheas.fr, maurice.libes@osupytheas.fr, didier.mallarino@osupytheas.fr
Project:EMSO http://www.emso-fr.org/EMSO-France
Depth: 2436.0 m
Title:EMSO Ligure Ouest : Data MII capteur MICROCAT
DateTime_Computer,Latitude,Longitude,Temperature,Conductivity,Pressure,DateTime_Instrument
DateTime_Computer,Latitude,Longitude,degC,S m-1,dbar,DateTime_Instrument
2022-12-22T00:02:08Z,42.805,6.029,13.3014,4.60058,2470.507,2022-12-22T02:08:04Z
2022-12-22T00:05:11Z,42.805,6.029,13.3009,4.60059,2470.544,2022-12-22T02:11:07Z
2022-12-22T00:08:14Z,42.805,6.029,13.3009,4.60059,2470.483,2022-12-22T02:14:10Z
2022-12-22T00:11:17Z,42.805,6.029,13.3010,4.60059,2470.52,2022-12-22T02:17:13Z
2022-12-22T00:14:20Z,42.805,6.029,13.3010,4.60059,2470.507,2022-12-22T02:20:16Z
2022-12-22T00:17:23Z,42.805,6.029,13.3008,4.60060,2470.507,2022-12-22T02:23:19Z
2022-12-22T00:20:26Z,42.805,6.029,13.3009,4.60059,2470.507,2022-12-22T02:26:23Z
2022-12-22T00:23:29Z,42.805,6.029,13.3011,4.60059,2470.483,2022-12-22T02:29:26Z
2022-12-22T00:26:32Z,42.805,6.029,13.3007,4.60059,2470.483,2022-12-22T02:32:29Z
2022-12-22T00:29:36Z,42.805,6.029,13.3012,4.60059,2470.507,2022-12-22T02:35:32Z
2022-12-22T00:32:39Z,42.805,6.029,13.3011,4.60059,2470.507,2022-12-22T02:38:35Z
2022-12-22T00:35:42Z,42.805,6.029,13.3007,4.60058,2470.507,2022-12-22T02:41:38Z
2022-12-22T00:38:45Z,42.805,6.029,13.3009,4.60059,2470.544,2022-12-22T02:44:41Z
2022-12-22T00:41:48Z,42.805,6.029,13.3009,4.60059,2470.544,2022-12-22T02:47:44Z
2022-12-22T00:44:51Z,42.805,6.029,13.3010,4.60059,2470.53,2022-12-22T02:50:47Z
2022-12-22T00:47:54Z,42.805,6.029,13.3014,4.60059,2470.53,2022-12-22T02:53:50Z
2022-12-22T00:50:57Z,42.805,6.029,13.3011,4.60059,2470.53,2022-12-22T02:56:53Z
2022-12-22T00:54:00Z,42.805,6.029,13.3011,4.60059,2470.483,2022-12-22T02:59:56Z
2022-12-22T00:57:03Z,42.805,6.029,13.3013,4.60059,2470.553,2022-12-22T03:03:00Z
2022-12-22T01:00:06Z,42.805,6.029,13.3007,4.60059,2470.52,2022-12-22T03:06:03Z
2022-12-22T01:03:10Z,42.805,6.029,13.3014,4.60058,2470.553,2022-12-22T03:09:06Z
2022-12-22T01:06:13Z,42.805,6.029,13.3014,4.60060,2470.493,2022-12-22T03:12:09Z
2022-12-22T01:09:16Z,42.805,6.029,13.3011,4.60059,2470.544,2022-12-22T03:15:12Z
2022-12-22T01:12:19Z,42.805,6.029,13.3008,4.60058,2470.53,2022-12-22T03:18:15Z
2022-12-22T01:15:22Z,42.805,6.029,13.3009,4.60061,2470.53,2022-12-22T03:21:18Z
2022-12-22T01:18:25Z,42.805,6.029,13.3010,4.60061,2470.53,2022-12-22T03:24:21Z
2022-12-22T01:21:28Z,42.805,6.029,13.3011,4.60059,2470.539,2022-12-22T03:27:24Z
2022-12-22T01:24:31Z,42.805,6.029,13.3012,4.60058,2470.553,2022-12-22T03:30:27Z
2022-12-22T01:27:34Z,42.805,6.029,13.3009,4.60058,2470.507,2022-12-22T03:33:30Z
2022-12-22T01:30:37Z,42.805,6.029,13.3008,4.60059,2470.52,2022-12-22T03:36:34Z
2022-12-22T01:33:40Z,42.805,6.029,13.3013,4.60059,2470.53,2022-12-22T03:39:37Z
2022-12-22T01:36:44Z,42.805,6.029,13.3010,4.60058,2470.567,2022-12-22T03:42:40Z
2022-12-22T01:39:47Z,42.805,6.029,13.3011,4.60058,2470.53,2022-12-22T03:45:43Z
2022-12-22T01:42:50Z,42.805,6.029,13.3008,4.60059,2470.53,2022-12-22T03:48:46Z
2022-12-22T01:45:53Z,42.805,6.029,13.3009,4.60060,2470.567,2022-12-22T03:51:49Z
2022-12-22T01:48:56Z,42.805,6.029,13.3015,4.60060,2470.567,2022-12-22T03:54:52Z
2022-12-22T01:51:59Z,42.805,6.029,13.3010,4.60057,2470.553,2022-12-22T03:57:55Z
2022-12-22T01:55:02Z,42.805,6.029,13.3011,4.60058,2470.553,2022-12-22T04:00:58Z
2022-12-22T01:58:05Z,42.805,6.029,13.3011,4.60059,2470.553,2022-12-22T04:04:01Z
2022-12-22T02:01:08Z,42.805,6.029,13.3006,4.60058,2470.591,2022-12-22T04:07:04Z
2022-12-22T02:04:11Z,42.805,6.029,13.3011,4.60058,2470.577,2022-12-22T04:10:08Z
2022-12-22T02:07:14Z,42.805,6.029,13.3008,4.60059,2470.567,2022-12-22T04:13:11Z
2022-12-22T02:10:17Z,42.805,6.029,13.3009,4.60058,2470.577,2022-12-22T04:16:14Z
2022-12-22T02:13:21Z,42.805,6.029,13.3011,4.60059,2470.567,2022-12-22T04:19:17Z
2022-12-22T02:16:24Z,42.805,6.029,13.3010,4.60059,2470.577,2022-12-22T04:22:20Z
2022-12-22T02:19:27Z,42.805,6.029,13.3008,4.60058,2470.577,2022-12-22T04:25:23Z
2022-12-22T02:22:30Z,42.805,6.029,13.3014,4.60059,2470.6,2022-12-22T04:28:26Z
2022-12-22T02:25:33Z,42.805,6.029,13.3009,4.60060,2470.577,2022-12-22T04:31:29Z
2022-12-22T02:28:36Z,42.805,6.029,13.3011,4.60058,2470.6,2022-12-22T04:34:32Z
2022-12-22T02:31:39Z,42.805,6.029,13.3011,4.60059,2470.614,2022-12-22T04:37:35Z
2022-12-22T02:34:42Z,42.805,6.029,13.3009,4.60058,2470.6,2022-12-22T04:40:38Z
2022-12-22T02:37:45Z,42.805,6.029,13.3011,4.60059,2470.591,2022-12-22T04:43:42Z
2022-12-22T02:40:48Z,42.805,6.029,13.3009,4.60058,2470.614,2022-12-22T04:46:45Z
2022-12-22T02:43:51Z,42.805,6.029,13.3010,4.60059,2470.624,2022-12-22T04:49:48Z
2022-12-22T02:46:55Z,42.805,6.029,13.3011,4.60058,2470.567,2022-12-22T04:52:51Z
2022-12-22T02:49:58Z,42.805,6.029,13.3012,4.60059,2470.6,2022-12-22T04:55:54Z
2022-12-22T02:53:01Z,42.805,6.029,13.3011,4.60062,2470.661,2022-12-22T04:58:57Z
2022-12-22T02:56:04Z,42.805,6.029,13.3012,4.60059,2470.6,2022-12-22T05:02:00Z
2022-12-22T02:59:07Z,42.805,6.029,13.3009,4.60060,2470.614,2022-12-22T05:05:03Z
2022-12-22T03:02:10Z,42.805,6.029,13.3011,4.60060,2470.67,2022-12-22T05:08:06Z
2022-12-22T03:05:13Z,42.805,6.029,13.3010,4.60060,2470.637,2022-12-22T05:11:09Z
2022-12-22T03:08:16Z,42.805,6.029,13.3014,4.60060,2470.637,2022-12-22T05:14:12Z
2022-12-22T03:11:19Z,42.805,6.029,13.3011,4.60061,2470.624,2022-12-22T05:17:15Z
2022-12-22T03:14:22Z,42.805,6.029,13.3011,4.60060,2470.624,2022-12-22T05:20:19Z
2022-12-22T03:17:25Z,42.805,6.029,13.3011,4.60058,2470.624,2022-12-22T05:23:22Z
2022-12-22T03:20:28Z,42.805,6.029,13.3014,4.60059,2470.624,2022-12-22T05:26:25Z
2022-12-22T03:23:32Z,42.805,6.029,13.3012,4.60059,2470.624,2022-12-22T05:29:28Z
2022-12-22T03:26:35Z,42.805,6.029,13.3010,4.60059,2470.637,2022-12-22T05:32:31Z
2022-12-22T03:29:38Z,42.805,6.029,13.3009,4.60060,2470.661,2022-12-22T05:35:34Z
2022-12-22T03:32:41Z,42.805,6.029,13.3011,4.60059,2470.684,2022-12-22T05:38:37Z
2022-12-22T03:35:44Z,42.805,6.029,13.3011,4.60060,2470.624,2022-12-22T05:41:40Z
2022-12-22T03:38:47Z,42.805,6.029,13.3011,4.60059,2470.646,2022-12-22T05:44:43Z
2022-12-22T03:41:50Z,42.805,6.029,13.3011,4.60059,2470.637,2022-12-22T05:47:46Z
2022-12-22T03:44:53Z,42.805,6.029,13.3010,4.60059,2470.67,2022-12-22T05:50:49Z
2022-12-22T03:47:56Z,42.805,6.029,13.3011,4.60060,2470.646,2022-12-22T05:53:53Z
2022-12-22T03:50:59Z,42.805,6.029,13.3009,4.60059,2470.67,2022-12-22T05:56:56Z
2022-12-22T03:54:02Z,42.805,6.029,13.3011,4.60060,2470.707,2022-12-22T05:59:59Z
2022-12-22T03:57:06Z,42.805,6.029,13.3011,4.60059,2470.67,2022-12-22T06:03:02Z
2022-12-22T04:00:09Z,42.805,6.029,13.3014,4.60062,2470.67,2022-12-22T06:06:05Z
2022-12-22T04:03:12Z,42.805,6.029,13.3007,4.60059,2470.67,2022-12-22T06:09:08Z
2022-12-22T04:06:15Z,42.805,6.029,13.3013,4.60062,2470.67,2022-12-22T06:12:11Z
2022-12-22T04:09:18Z,42.805,6.029,13.3008,4.60059,2470.67,2022-12-22T06:15:14Z
2022-12-22T04:12:21Z,42.805,6.029,13.3009,4.60062,2470.693,2022-12-22T06:18:17Z
2022-12-22T04:15:24Z,42.805,6.029,13.3012,4.60059,2470.693,2022-12-22T06:21:20Z
2022-12-22T04:18:27Z,42.805,6.029,13.3011,4.60062,2470.684,2022-12-22T06:24:23Z
2022-12-22T04:21:30Z,42.805,6.029,13.3011,4.60061,2470.707,2022-12-22T06:27:27Z
2022-12-22T04:24:33Z,42.805,6.029,13.3013,4.60061,2470.693,2022-12-22T06:30:30Z
2022-12-22T04:27:36Z,42.805,6.029,13.3013,4.60059,2470.693,2022-12-22T06:33:33Z
2022-12-22T04:30:39Z,42.805,6.029,13.3009,4.60059,2470.717,2022-12-22T06:36:36Z
2022-12-22T04:33:43Z,42.805,6.029,13.3008,4.60059,2470.717,2022-12-22T06:39:39Z
2022-12-22T04:36:46Z,42.805,6.029,13.3010,4.60061,2470.754,2022-12-22T06:42:42Z
2022-12-22T04:39:49Z,42.805,6.029,13.3009,4.60059,2470.717,2022-12-22T06:45:45Z
2022-12-22T04:42:52Z,42.805,6.029,13.3008,4.60060,2470.73,2022-12-22T06:48:48Z
2022-12-22T04:45:55Z,42.805,6.029,13.3009,4.60059,2470.717,2022-12-22T06:51:51Z
2022-12-22T04:48:58Z,42.805,6.029,13.3006,4.60061,2470.754,2022-12-22T06:54:54Z
2022-12-22T04:52:01Z,42.805,6.029,13.3011,4.60060,2470.74,2022-12-22T06:57:57Z
2022-12-22T04:55:04Z,42.805,6.029,13.3012,4.60059,2470.777,2022-12-22T07:01:00Z
2022-12-22T04:58:07Z,42.805,6.029,13.3011,4.60060,2470.754,2022-12-22T07:04:04Z
2022-12-22T05:01:10Z,42.805,6.029,13.3014,4.60062,2470.74,2022-12-22T07:07:07Z
2022-12-22T05:04:13Z,42.805,6.029,13.3010,4.60061,2470.717,2022-12-22T07:10:10Z
2022-12-22T05:07:16Z,42.805,6.029,13.3011,4.60062,2470.74,2022-12-22T07:13:13Z
2022-12-22T05:10:20Z,42.805,6.029,13.3007,4.60061,2470.754,2022-12-22T07:16:16Z
2022-12-22T05:13:23Z,42.805,6.029,13.3012,4.60061,2470.754,2022-12-22T07:19:19Z
2022-12-22T05:16:26Z,42.805,6.029,13.3010,4.60062,2470.74,2022-12-22T07:22:22Z
2022-12-22T05:19:29Z,42.805,6.029,13.3011,4.60060,2470.717,2022-12-22T07:25:25Z
2022-12-22T05:22:32Z,42.805,6.029,13.3009,4.60062,2470.754,2022-12-22T07:28:28Z
2022-12-22T05:25:35Z,42.805,6.029,13.3009,4.60059,2470.74,2022-12-22T07:31:31Z
2022-12-22T05:28:38Z,42.805,6.029,13.3013,4.60059,2470.74,2022-12-22T07:34:34Z
2022-12-22T05:31:41Z,42.805,6.029,13.3008,4.60059,2470.763,2022-12-22T07:37:38Z
2022-12-22T05:34:44Z,42.805,6.029,13.3011,4.60060,2470.73,2022-12-22T07:40:41Z
2022-12-22T05:37:47Z,42.805,6.029,13.3011,4.60060,2470.777,2022-12-22T07:43:44Z
2022-12-22T05:40:50Z,42.805,6.029,13.3011,4.60060,2470.717,2022-12-22T07:46:47Z
2022-12-22T05:43:54Z,42.805,6.029,13.3013,4.60061,2470.777,2022-12-22T07:49:50Z
2022-12-22T05:46:57Z,42.805,6.029,13.3010,4.60060,2470.74,2022-12-22T07:52:53Z
2022-12-22T05:50:00Z,42.805,6.029,13.3011,4.60062,2470.754,2022-12-22T07:55:56Z
2022-12-22T05:53:03Z,42.805,6.029,13.3011,4.60060,2470.754,2022-12-22T07:58:59Z
2022-12-22T05:56:06Z,42.805,6.029,13.3014,4.60061,2470.73,2022-12-22T08:02:02Z
2022-12-22T05:59:09Z,42.805,6.029,13.3010,4.60061,2470.763,2022-12-22T08:05:05Z
2022-12-22T06:02:12Z,42.805,6.029,13.3009,4.60062,2470.74,2022-12-22T08:08:08Z
2022-12-22T06:05:15Z,42.805,6.029,13.3010,4.60060,2470.717,2022-12-22T08:11:11Z
2022-12-22T06:08:18Z,42.805,6.029,13.3011,4.60062,2470.74,2022-12-22T08:14:15Z
2022-12-22T06:11:21Z,42.805,6.029,13.3010,4.60060,2470.717,2022-12-22T08:17:18Z
2022-12-22T06:14:24Z,42.805,6.029,13.3009,4.60061,2470.763,2022-12-22T08:20:21Z
2022-12-22T06:17:27Z,42.805,6.029,13.3011,4.60062,2470.754,2022-12-22T08:23:24Z
2022-12-22T06:20:31Z,42.805,6.029,13.3015,4.60062,2470.74,2022-12-22T08:26:27Z
2022-12-22T06:23:34Z,42.805,6.029,13.3011,4.60060,2470.754,2022-12-22T08:29:30Z
2022-12-22T06:26:37Z,42.805,6.029,13.3012,4.60061,2470.763,2022-12-22T08:32:33Z
2022-12-22T06:29:40Z,42.805,6.029,13.3011,4.60060,2470.74,2022-12-22T08:35:36Z
2022-12-22T06:32:43Z,42.805,6.029,13.3011,4.60062,2470.74,2022-12-22T08:38:39Z
2022-12-22T06:35:46Z,42.805,6.029,13.3009,4.60061,2470.74,2022-12-22T08:41:42Z
2022-12-22T06:38:49Z,42.805,6.029,13.3013,4.60061,2470.74,2022-12-22T08:44:45Z
2022-12-22T06:41:52Z,42.805,6.029,13.3012,4.60061,2470.754,2022-12-22T08:47:49Z
2022-12-22T06:44:55Z,42.805,6.029,13.3012,4.60061,2470.73,2022-12-22T08:50:52Z
2022-12-22T06:47:58Z,42.805,6.029,13.3011,4.60061,2470.74,2022-12-22T08:53:55Z
2022-12-22T06:51:01Z,42.805,6.029,13.3009,4.60061,2470.763,2022-12-22T08:56:58Z
2022-12-22T06:54:04Z,42.805,6.029,13.3008,4.60059,2470.754,2022-12-22T09:00:01Z
2022-12-22T06:57:08Z,42.805,6.029,13.3009,4.60065,2470.74,2022-12-22T09:03:04Z
2022-12-22T07:00:11Z,42.805,6.029,13.3010,4.60060,2470.763,2022-12-22T09:06:07Z
2022-12-22T07:03:14Z,42.805,6.029,13.3013,4.60059,2470.777,2022-12-22T09:09:10Z
2022-12-22T07:06:17Z,42.805,6.029,13.3014,4.60060,2470.74,2022-12-22T09:12:13Z
2022-12-22T07:09:20Z,42.805,6.029,13.3011,4.60060,2470.777,2022-12-22T09:15:16Z
2022-12-22T07:12:23Z,42.805,6.029,13.3011,4.60060,2470.777,2022-12-22T09:18:19Z
2022-12-22T07:15:26Z,42.805,6.029,13.3011,4.60062,2470.74,2022-12-22T09:21:22Z
2022-12-22T07:18:29Z,42.805,6.029,13.3007,4.60061,2470.763,2022-12-22T09:24:26Z
2022-12-22T07:21:32Z,42.805,6.029,13.3011,4.60062,2470.73,2022-12-22T09:27:29Z
2022-12-22T07:24:35Z,42.805,6.029,13.3013,4.60061,2470.74,2022-12-22T09:30:32Z
2022-12-22T07:27:38Z,42.805,6.029,13.3011,4.60062,2470.74,2022-12-22T09:33:35Z
2022-12-22T07:30:41Z,42.805,6.029,13.3010,4.60060,2470.754,2022-12-22T09:36:38Z
2022-12-22T07:33:45Z,42.805,6.029,13.3012,4.60059,2470.787,2022-12-22T09:39:41Z
2022-12-22T07:36:48Z,42.805,6.029,13.3010,4.60061,2470.777,2022-12-22T09:42:44Z
2022-12-22T07:39:51Z,42.805,6.029,13.3011,4.60061,2470.754,2022-12-22T09:45:47Z
2022-12-22T07:42:54Z,42.805,6.029,13.3005,4.60061,2470.74,2022-12-22T09:48:50Z
2022-12-22T07:45:57Z,42.805,6.029,13.3011,4.60062,2470.763,2022-12-22T09:51:53Z
2022-12-22T07:49:00Z,42.805,6.029,13.3011,4.60061,2470.74,2022-12-22T09:54:56Z
2022-12-22T07:52:03Z,42.805,6.029,13.3010,4.60062,2470.763,2022-12-22T09:58:00Z
2022-12-22T07:55:06Z,42.805,6.029,13.3013,4.60059,2470.763,2022-12-22T10:01:03Z
2022-12-22T07:58:09Z,42.805,6.029,13.3010,4.60060,2470.763,2022-12-22T10:04:06Z
2022-12-22T08:01:12Z,42.805,6.029,13.3009,4.60062,2470.754,2022-12-22T10:07:09Z
2022-12-22T08:04:15Z,42.805,6.029,13.3010,4.60062,2470.717,2022-12-22T10:10:12Z
2022-12-22T08:07:19Z,42.805,6.029,13.3011,4.60060,2470.74,2022-12-22T10:13:15Z
2022-12-22T08:10:22Z,42.805,6.029,13.3012,4.60061,2470.754,2022-12-22T10:16:18Z
2022-12-22T08:13:25Z,42.805,6.029,13.3014,4.60060,2470.73,2022-12-22T10:19:21Z
2022-12-22T08:16:28Z,42.805,6.029,13.3011,4.60061,2470.754,2022-12-22T10:22:24Z
2022-12-22T08:19:31Z,42.805,6.029,13.3013,4.60061,2470.74,2022-12-22T10:25:27Z
2022-12-22T08:22:34Z,42.805,6.029,13.3012,4.60062,2470.717,2022-12-22T10:28:30Z
2022-12-22T08:25:37Z,42.805,6.029,13.3011,4.60061,2470.717,2022-12-22T10:31:34Z
2022-12-22T08:28:40Z,42.805,6.029,13.3015,4.60062,2470.73,2022-12-22T10:34:37Z
2022-12-22T08:31:43Z,42.805,6.029,13.3008,4.60061,2470.74,2022-12-22T10:37:40Z
2022-12-22T08:34:46Z,42.805,6.029,13.3016,4.60061,2470.717,2022-12-22T10:40:43Z
2022-12-22T08:37:49Z,42.805,6.029,13.3010,4.60062,2470.693,2022-12-22T10:43:46Z
2022-12-22T08:40:53Z,42.805,6.029,13.3011,4.60061,2470.693,2022-12-22T10:46:49Z
2022-12-22T08:43:56Z,42.805,6.029,13.3009,4.60061,2470.74,2022-12-22T10:49:52Z
2022-12-22T08:46:59Z,42.805,6.029,13.3010,4.60060,2470.74,2022-12-22T10:52:55Z
2022-12-22T08:50:02Z,42.805,6.029,13.3011,4.60061,2470.73,2022-12-22T10:55:58Z
2022-12-22T08:53:05Z,42.805,6.029,13.3011,4.60060,2470.74,2022-12-22T10:59:01Z
2022-12-22T08:56:08Z,42.805,6.029,13.3011,4.60059,2470.707,2022-12-22T11:02:05Z
2022-12-22T08:59:11Z,42.805,6.029,13.3009,4.60062,2470.754,2022-12-22T11:05:08Z
2022-12-22T09:02:14Z,42.805,6.029,13.3013,4.60061,2470.73,2022-12-22T11:08:11Z
2022-12-22T09:05:17Z,42.805,6.029,13.3014,4.60061,2470.73,2022-12-22T11:11:14Z
2022-12-22T09:08:20Z,42.805,6.029,13.3013,4.60061,2470.684,2022-12-22T11:14:17Z
2022-12-22T09:11:23Z,42.805,6.029,13.3009,4.60060,2470.717,2022-12-22T11:17:20Z
2022-12-22T09:14:27Z,42.805,6.029,13.3009,4.60060,2470.707,2022-12-22T11:20:23Z
2022-12-22T09:17:30Z,42.805,6.029,13.3009,4.60062,2470.717,2022-12-22T11:23:26Z
2022-12-22T09:20:33Z,42.805,6.029,13.3014,4.60060,2470.67,2022-12-22T11:26:29Z
2022-12-22T09:23:36Z,42.805,6.029,13.3015,4.60061,2470.67,2022-12-22T11:29:32Z
2022-12-22T09:26:39Z,42.805,6.029,13.3010,4.60061,2470.717,2022-12-22T11:32:35Z
2022-12-22T09:29:42Z,42.805,6.029,13.3011,4.60060,2470.707,2022-12-22T11:35:39Z
2022-12-22T09:32:45Z,42.805,6.029,13.3011,4.60059,2470.67,2022-12-22T11:38:42Z
2022-12-22T09:35:48Z,42.805,6.029,13.3009,4.60062,2470.684,2022-12-22T11:41:45Z
2022-12-22T09:38:51Z,42.805,6.029,13.3011,4.60062,2470.717,2022-12-22T11:44:48Z
2022-12-22T09:41:54Z,42.805,6.029,13.3007,4.60060,2470.693,2022-12-22T11:47:51Z
2022-12-22T09:44:58Z,42.805,6.029,13.3011,4.60060,2470.67,2022-12-22T11:50:54Z
2022-12-22T09:48:01Z,42.805,6.029,13.3011,4.60061,2470.67,2022-12-22T11:53:57Z
2022-12-22T09:51:04Z,42.805,6.029,13.3012,4.60061,2470.693,2022-12-22T11:57:00Z
2022-12-22T09:54:07Z,42.805,6.029,13.3012,4.60062,2470.693,2022-12-22T12:00:03Z
2022-12-22T09:57:10Z,42.805,6.029,13.3010,4.60060,2470.679,2022-12-22T12:03:06Z
2022-12-22T10:00:13Z,42.805,6.029,13.3014,4.60061,2470.693,2022-12-22T12:06:09Z
2022-12-22T10:03:16Z,42.805,6.029,13.3009,4.60062,2470.67,2022-12-22T12:09:13Z
2022-12-22T10:06:19Z,42.805,6.029,13.3009,4.60061,2470.693,2022-12-22T12:12:16Z
2022-12-22T10:09:22Z,42.805,6.029,13.3011,4.60061,2470.67,2022-12-22T12:15:19Z
2022-12-22T10:12:25Z,42.805,6.029,13.3011,4.60060,2470.67,2022-12-22T12:18:22Z
2022-12-22T10:15:28Z,42.805,6.029,13.3011,4.60062,2470.67,2022-12-22T12:21:25Z
2022-12-22T10:18:31Z,42.805,6.029,13.3011,4.60062,2470.661,2022-12-22T12:24:28Z
2022-12-22T10:21:35Z,42.805,6.029,13.3010,4.60061,2470.693,2022-12-22T12:27:31Z
2022-12-22T10:24:38Z,42.805,6.029,13.3011,4.60062,2470.646,2022-12-22T12:30:34Z
2022-12-22T10:27:41Z,42.805,6.029,13.3013,4.60062,2470.646,2022-12-22T12:33:37Z
2022-12-22T10:30:44Z,42.805,6.029,13.3009,4.60059,2470.661,2022-12-22T12:36:40Z
2022-12-22T10:33:47Z,42.805,6.029,13.3009,4.60060,2470.67,2022-12-22T12:39:43Z
2022-12-22T10:36:50Z,42.805,6.029,13.3010,4.60061,2470.624,2022-12-22T12:42:47Z
2022-12-22T10:39:53Z,42.805,6.029,13.3015,4.60059,2470.661,2022-12-22T12:45:50Z
2022-12-22T10:42:56Z,42.805,6.029,13.3009,4.60062,2470.646,2022-12-22T12:48:53Z
2022-12-22T10:45:59Z,42.805,6.029,13.3012,4.60061,2470.614,2022-12-22T12:51:56Z
2022-12-22T10:49:02Z,42.805,6.029,13.3009,4.60060,2470.661,2022-12-22T12:54:59Z
2022-12-22T10:52:06Z,42.805,6.029,13.3013,4.60060,2470.6,2022-12-22T12:58:02Z
2022-12-22T10:55:09Z,42.805,6.029,13.3011,4.60059,2470.624,2022-12-22T13:01:05Z
2022-12-22T10:58:12Z,42.805,6.029,13.3013,4.60060,2470.624,2022-12-22T13:04:08Z
2022-12-22T11:01:15Z,42.805,6.029,13.3015,4.60061,2470.637,2022-12-22T13:07:11Z
2022-12-22T11:04:18Z,42.805,6.029,13.3013,4.60061,2470.637,2022-12-22T13:10:14Z
2022-12-22T11:07:21Z,42.805,6.029,13.3011,4.60061,2470.646,2022-12-22T13:13:18Z
2022-12-22T11:10:24Z,42.805,6.029,13.3015,4.60060,2470.614,2022-12-22T13:16:21Z
2022-12-22T11:13:27Z,42.805,6.029,13.3013,4.60059,2470.637,2022-12-22T13:19:24Z
2022-12-22T11:16:30Z,42.805,6.029,13.3014,4.60060,2470.637,2022-12-22T13:22:27Z
2022-12-22T11:19:33Z,42.805,6.029,13.3013,4.60060,2470.6,2022-12-22T13:25:30Z
2022-12-22T11:22:36Z,42.805,6.029,13.3009,4.60061,2470.6,2022-12-22T13:28:33Z
2022-12-22T11:25:39Z,42.805,6.029,13.3011,4.60061,2470.577,2022-12-22T13:31:36Z
2022-12-22T11:28:43Z,42.805,6.029,13.3011,4.60060,2470.624,2022-12-22T13:34:39Z
2022-12-22T11:31:46Z,42.805,6.029,13.3014,4.60060,2470.6,2022-12-22T13:37:42Z
2022-12-22T11:34:49Z,42.805,6.029,13.3010,4.60059,2470.614,2022-12-22T13:40:45Z
2022-12-22T11:37:52Z,42.805,6.029,13.3008,4.60060,2470.6,2022-12-22T13:43:48Z
2022-12-22T11:40:55Z,42.805,6.029,13.3011,4.60059,2470.637,2022-12-22T13:46:52Z
2022-12-22T11:43:58Z,42.805,6.029,13.3012,4.60060,2470.6,2022-12-22T13:49:55Z
2022-12-22T11:47:01Z,42.805,6.029,13.3009,4.60061,2470.577,2022-12-22T13:52:58Z
2022-12-22T11:50:04Z,42.805,6.029,13.3009,4.60059,2470.577,2022-12-22T13:56:01Z
2022-12-22T11:53:07Z,42.805,6.029,13.3013,4.60061,2470.577,2022-12-22T13:59:04Z
2022-12-22T11:56:10Z,42.805,6.029,13.3009,4.60058,2470.614,2022-12-22T14:02:07Z
2022-12-22T11:59:13Z,42.805,6.029,13.3012,4.60058,2470.614,2022-12-22T14:05:10Z
2022-12-22T12:02:17Z,42.805,6.029,13.3011,4.60059,2470.591,2022-12-22T14:08:13Z
2022-12-22T12:05:20Z,42.805,6.029,13.3006,4.60060,2470.577,2022-12-22T14:11:16Z
2022-12-22T12:08:23Z,42.805,6.029,13.3014,4.60061,2470.553,2022-12-22T14:14:19Z
2022-12-22T12:11:26Z,42.805,6.029,13.3009,4.60061,2470.577,2022-12-22T14:17:22Z
2022-12-22T12:14:29Z,42.805,6.029,13.3009,4.60061,2470.591,2022-12-22T14:20:26Z
2022-12-22T12:17:32Z,42.805,6.029,13.3011,4.60061,2470.577,2022-12-22T14:23:29Z
2022-12-22T12:20:35Z,42.805,6.029,13.3014,4.60059,2470.577,2022-12-22T14:26:32Z
2022-12-22T12:23:38Z,42.805,6.029,13.3012,4.60059,2470.553,2022-12-22T14:29:35Z
2022-12-22T12:26:41Z,42.805,6.029,13.3009,4.60059,2470.577,2022-12-22T14:32:38Z
2022-12-22T12:29:44Z,42.805,6.029,13.3008,4.60059,2470.577,2022-12-22T14:35:41Z
2022-12-22T12:32:48Z,42.805,6.029,13.3010,4.60060,2470.577,2022-12-22T14:38:44Z
2022-12-22T12:35:51Z,42.805,6.029,13.3013,4.60060,2470.577,2022-12-22T14:41:47Z
2022-12-22T12:38:54Z,42.805,6.029,13.3010,4.60059,2470.577,2022-12-22T14:44:50Z
2022-12-22T12:41:57Z,42.805,6.029,13.3013,4.60059,2470.577,2022-12-22T14:47:53Z
2022-12-22T12:45:00Z,42.805,6.029,13.3012,4.60060,2470.591,2022-12-22T14:50:56Z
2022-12-22T12:48:03Z,42.805,6.029,13.3012,4.60059,2470.591,2022-12-22T14:54:00Z
2022-12-22T12:51:06Z,42.805,6.029,13.3006,4.60059,2470.6,2022-12-22T14:57:03Z
2022-12-22T12:54:09Z,42.805,6.029,13.3013,4.60058,2470.553,2022-12-22T15:00:06Z
2022-12-22T12:57:12Z,42.805,6.029,13.3006,4.60061,2470.577,2022-12-22T15:03:09Z
2022-12-22T13:00:15Z,42.805,6.029,13.3010,4.60060,2470.577,2022-12-22T15:06:12Z
2022-12-22T13:03:18Z,42.805,6.029,13.3011,4.60060,2470.567,2022-12-22T15:09:15Z
2022-12-22T13:06:21Z,42.805,6.029,13.3009,4.60059,2470.577,2022-12-22T15:12:18Z
2022-12-22T13:09:25Z,42.805,6.029,13.3012,4.60059,2470.553,2022-12-22T15:15:21Z
2022-12-22T13:12:28Z,42.805,6.029,13.3013,4.60060,2470.577,2022-12-22T15:18:24Z
2022-12-22T13:15:31Z,42.805,6.029,13.3009,4.60060,2470.553,2022-12-22T15:21:27Z
2022-12-22T13:18:34Z,42.805,6.029,13.3009,4.60059,2470.553,2022-12-22T15:24:30Z
2022-12-22T13:21:37Z,42.805,6.029,13.3007,4.60059,2470.53,2022-12-22T15:27:34Z
2022-12-22T13:24:40Z,42.805,6.029,13.3013,4.60060,2470.553,2022-12-22T15:30:37Z
2022-12-22T13:27:43Z,42.805,6.029,13.3008,4.60060,2470.544,2022-12-22T15:33:40Z
2022-12-22T13:30:46Z,42.805,6.029,13.3012,4.60060,2470.567,2022-12-22T15:36:43Z
2022-12-22T13:33:49Z,42.805,6.029,13.3010,4.60059,2470.577,2022-12-22T15:39:46Z
2022-12-22T13:36:52Z,42.805,6.029,13.3010,4.60059,2470.553,2022-12-22T15:42:49Z
2022-12-22T13:39:55Z,42.805,6.029,13.3010,4.60060,2470.591,2022-12-22T15:45:52Z
2022-12-22T13:42:59Z,42.805,6.029,13.3011,4.60060,2470.591,2022-12-22T15:48:55Z
2022-12-22T13:46:02Z,42.805,6.029,13.3013,4.60060,2470.553,2022-12-22T15:51:58Z
2022-12-22T13:49:05Z,42.805,6.029,13.3011,4.60060,2470.567,2022-12-22T15:55:01Z
2022-12-22T13:52:08Z,42.805,6.029,13.3006,4.60060,2470.577,2022-12-22T15:58:04Z
2022-12-22T13:55:11Z,42.805,6.029,13.3013,4.60059,2470.591,2022-12-22T16:01:08Z
2022-12-22T13:58:14Z,42.805,6.029,13.3010,4.60060,2470.577,2022-12-22T16:04:11Z
2022-12-22T14:01:17Z,42.805,6.029,13.3011,4.60059,2470.553,2022-12-22T16:07:14Z
2022-12-22T14:04:20Z,42.805,6.029,13.3011,4.60059,2470.567,2022-12-22T16:10:17Z
2022-12-22T14:07:23Z,42.805,6.029,13.3009,4.60060,2470.577,2022-12-22T16:13:20Z
2022-12-22T14:10:26Z,42.805,6.029,13.3012,4.60060,2470.591,2022-12-22T16:16:23Z
2022-12-22T14:13:29Z,42.805,6.029,13.3010,4.60061,2470.553,2022-12-22T16:19:26Z
2022-12-22T14:16:33Z,42.805,6.029,13.3009,4.60061,2470.577,2022-12-22T16:22:29Z
2022-12-22T14:19:36Z,42.805,6.029,13.3015,4.60061,2470.577,2022-12-22T16:25:32Z
2022-12-22T14:22:39Z,42.805,6.029,13.3011,4.60060,2470.577,2022-12-22T16:28:35Z
2022-12-22T14:25:42Z,42.805,6.029,13.3014,4.60060,2470.591,2022-12-22T16:31:39Z
2022-12-22T14:28:45Z,42.805,6.029,13.3011,4.60059,2470.6,2022-12-22T16:34:42Z
2022-12-22T14:31:48Z,42.805,6.029,13.3013,4.60061,2470.553,2022-12-22T16:37:45Z
2022-12-22T14:34:51Z,42.805,6.029,13.3013,4.60061,2470.577,2022-12-22T16:40:48Z
2022-12-22T14:37:54Z,42.805,6.029,13.3012,4.60061,2470.591,2022-12-22T16:43:51Z
2022-12-22T14:40:57Z,42.805,6.029,13.3010,4.60060,2470.614,2022-12-22T16:46:54Z
2022-12-22T14:44:00Z,42.805,6.029,13.3011,4.60060,2470.577,2022-12-22T16:49:57Z
2022-12-22T14:47:03Z,42.805,6.029,13.3013,4.60061,2470.637,2022-12-22T16:53:00Z
2022-12-22T14:50:07Z,42.805,6.029,13.3011,4.60061,2470.591,2022-12-22T16:56:03Z
2022-12-22T14:53:10Z,42.805,6.029,13.3013,4.60061,2470.6,2022-12-22T16:59:06Z
2022-12-22T14:56:13Z,42.805,6.029,13.3011,4.60061,2470.577,2022-12-22T17:02:09Z
2022-12-22T14:59:16Z,42.805,6.029,13.3011,4.60061,2470.6,2022-12-22T17:05:13Z
2022-12-22T15:02:19Z,42.805,6.029,13.3013,4.60061,2470.624,2022-12-22T17:08:16Z